TIME,DELAY(SENSOR),PRES,OXYGEN,RAWTEMP,T(OPTODE),TCPHASE,FLUOR,BETA(BETA700),BETA(BETA412),BETA(BETA440),CDOM,C(CSC),ED(ED411.90),ED(ED443.80),ED(ED489.40),ED(ED554.70),LU(LU412.20),LU(LU443.80),LU(LU489.40),LU(LU555.00),COMP,TILTX,TILTY,CHECK
1365459364,5805,867.6900024414062000,170.1029968261718800,457.8705139160156000,8.8309125900268550,39.1730308532714840,52,103,97,80,78,11473,2146960548,2147519003,2147291785,2147501156,2147081234,2146931190,2147706148,2147120530,968,-1,8,8053
1365462960,5805,996.0900268554688000,212.7552032470703000,519.6439208984375000,6.9187440872192380,37.4811210632324200,53,101,96,79,81,11475,2146963712,2147516891,2147297938,2147511058,2147085083,2146923181,2147719442,2147123026,735,-1,8,702
1365466560,5805,1024.1999511718750000,223.1867980957031200,532.4210205078125000,6.5200200080871580,37.1184806823730500,52,103,97,79,81,11472,2146961718,2147519213,2147298752,2147518445,2147083638,2146920036,2147721206,2147118509,1589,0,8,48205
1365470160,5807,1025.1099853515625000,228.0552062988281200,535.4359130859375000,6.4257621765136720,36.9063415527343750,52,105,96,78,80,11474,2146962633,2147521097,2147297435,2147515337,2147087542,2146916626,2147724836,2147122340,2847,-1,8,12183
1365473760,5810,1033.4899902343750000,231.7095031738281200,536.7821044921875000,6.3836498260498050,36.7354011535644500,52,107,97,79,81,11455,2146961353,2147519533,2147300251,2147516544,2147085988,2146919789,2147726070,2147119424,53,0,8,57890
1365477360,5804,1029.5100097656250000,234.0348052978515600,538.6879272460938000,6.3240089416503910,36.6466217041015600,52,103,97,80,80,11437,2146958720,2147520155,2147297865,2147517604,2147085321,2146919241,2147724242,2147120164,3424,-1,8,11709
1365480960,5807,1025.6600341796875000,233.0592956542968800,538.9683227539062000,6.3152332305908200,36.7027397155761700,51,101,97,79,81,11456,2146963136,2147517174,2147298304,2147519104,2147082148,2146916278,2147722569,2147120000,1343,-1,8,16527
1365484560,5806,1029.8100585937500000,234.8607940673828000,539.4882812500000000,6.2989540100097660,36.6179389953613300,53,102,98,82,81,11455,2146961645,2147516534,2147299218,2147515776,2147082139,2146920566,2147721993,2147121910,252,0,8,60897
1365488160,5807,1031.0999755859375000,235.4857940673828000,539.7050781250000000,6.2921681404113770,36.5891685485839840,53,102,97,80,80,11454,2146960932,2147515328,2147298130,2147515446,2147086098,2146917504,2147723154,2147121974,1496,-1,8,56452
1365491760,5804,1032.2299804687500000,233.5856018066406200,539.6500244140625000,6.2938938140869140,36.6874084472656250,52,100,98,79,81,11458,2146962989,2147517238,2147297270,2147515520,2147084123,2146921737,2147725732,2147121472,2980,-1,8,33267
1365495360,5808,1035.0200195312500000,232.6481933593750000,539.5360717773438000,6.2974591255187990,36.7346992492675800,51,101,97,78,82,11456,2146962075,2147519881,2147297819,2147516388,2147089152,2146922486,2147729197,2147121728,3592,0,8,52619
1365498960,5806,1030.0000000000000000,230.9261016845703000,535.6362304687500000,6.4194970130920410,36.7564888000488300,53,101,96,79,80,11452,2146959277,2147519826,2147298898,2147514313,2147082998,2146921462,2147725257,2147122112,3095,0,8,37347
1365502560,5809,1034.6600341796875000,229.7597961425781200,534.6510009765625000,6.4503059387207030,36.8011512756347660,52,108,98,79,81,11445,2146962541,2147520009,2147299346,2147516589,2147084260,2146919533,2147726061,2147120347,202,-1,8,50487
1365506160,5806,1027.3299560546875000,229.6513061523437500,536.1896972656250000,6.4021821022033690,36.8347091674804700,53,105,98,78,80,11445,2146962779,2147518427,2147298578,2147518464,2147085915,2146922825,2147724068,2147117769,2977,-1,8,31641
1365509760,5806,1032.3900146484375000,227.7810974121093800,535.4276733398438000,6.4260182380676270,36.9216690063476560,52,102,97,78,80,11447,2146961462,2147520713,2147298587,2147518171,2147085083,2146919360,2147722788,2147119753,3460,-1,8,23971
1365513360,5809,1029.8199462890625000,228.4252929687500000,536.7297973632812000,6.3852858543396000,36.9095382690429700,52,102,99,78,80,11443,2146961901,2147517357,2147294171,2147516617,2147086080,2146923693,2147724123,2147120310,38,-1,8,22908
1365516960,5806,1026.7399902343750000,227.8206939697265600,536.5908813476562000,6.3896288871765140,36.9404411315918000,53,101,97,79,81,11441,2146963648,2147515163,2147297197,2147515410,2147083830,2146921106,2147726363,2147123364,379,0,8,62750
1365520560,5806,1028.3100585937500000,234.1374969482422000,539.0936279296875000,6.3113141059875490,36.6485099792480500,52,106,98,79,81,11443,2146963181,2147518957,2147296411,2147518518,2147083904,2146919862,2147724050,2147121664,3160,0,8,3730
1365524160,5804,1031.3499755859375000,231.4691009521484400,536.3881835937500000,6.3959708213806150,36.7410392761230500,52,101,98,79,80,11439,2146958802,2147517366,2147300443,2147516269,2147084937,2146915501,2147724288,2147121499,461,0,8,46163
1365527760,5804,1027.6500244140625000,233.0713958740234400,537.7733154296875000,6.3526358604431150,36.6805114746093750,51,103,97,80,79,11436,2146961490,2147517321,2147300644,2147519341,2147084187,2146920018,2147725046,2147121508,2953,-1,8,36940
1365531360,5805,1028.1300048828125000,234.0615997314453000,538.7008056640625000,6.3236060142517090,36.6457405090332000,51,100,98,78,80,11437,2146960740,2147517860,2147298587,2147514532,2147085833,2146920795,2147724278,2147122788,3270,0,8,54627
1365534960,5803,1024.6800537109375000,233.8502960205078000,538.4074707031250000,6.3327870368957520,36.6514396667480500,52,103,97,79,81,11437,2146961508,2147521792,2147301412,2147516480,2147083090,2146920402,2147721426,2147122715,2826,0,8,20358
1365538560,5808,1025.8699951171875000,235.8070983886718800,539.9204101562500000,6.2854270935058590,36.5758705139160160,52,104,97,83,81,11434,2146960777,2147520868,2147300169,2147517165,2147083776,2146919588,2147720731,2147120301,54,0,8,20531
1365542160,5805,1023.7100219726562000,235.0036010742187500,539.1608886718750000,6.3092041015625000,36.6045303344726560,52,104,97,79,81,11433,2146965147,2147519259,2147302326,2147517403,2147085037,2146923236,2147727533,2147119990,3402,-1,8,42055
1365545760,5805,1025.8199462890625000,235.5634002685547000,540.3901977539062000,6.2707161903381350,36.5972404479980500,53,104,96,78,80,11414,2146964342,2147522422,2147300342,2147515254,2147084909,2146914541,2147724699,2147124269,3229,-1,8,2151
1365549360,5808,1021.2700195312500000,234.8569030761718800,540.3123168945312000,6.2731552124023440,36.6327590942382800,52,102,97,78,81,11415,2146959899,2147522688,2147298486,2147518217,2147084434,2146918875,2147724644,2147120886,199,-1,8,26040
1365552960,5806,1025.9100341796875000,234.1352996826172000,539.3729858398438000,6.3025650978088380,36.6535911560058600,52,116,97,79,81,11412,2146961481,2147521481,2147296914,2147516196,2147085632,2146919497,2147725138,2147120658,2424,-1,8,24908
1365556560,5806,1031.4899902343750000,234.6255035400390600,539.3986816406250000,6.3017621040344240,36.6279106140136700,53,103,98,79,81,11415,2146963702,2147519222,2147301394,2147515117,2147086006,2146920978,2147722806,2147122029,493,-1,8,28604
1365560160,5807,1028.0300292968750000,234.4680938720703000,538.9310302734375000,6.3164010047912600,36.6282501220703100,53,101,97,87,81,11413,2146962230,2147521197,2147296292,2147514715,2147083931,2146921344,2147723328,2147121252,1324,-1,8,29884
1365563760,5805,1033.3299560546875000,233.3370971679687500,538.1411132812500000,6.3411240577697750,36.6737594604492200,52,104,98,80,80,11412,2146964224,2147518546,2147299721,2147516864,2147082358,2146921865,2147723849,2147123675,229,-1,8,31816
1365567360,5805,1030.9000244140625000,233.0292968750000000,538.8568725585938000,6.3187217712402340,36.7024917602539060,52,104,96,80,79,11408,2146961737,2147520539,2147297819,2147516918,2147083008,2146920493,2147722962,2147120448,3122,0,8,34524
1365570960,5806,1027.5500488281250000,234.1092071533203000,539.0335083007812000,6.3131918907165530,36.6485595703125000,52,105,97,79,80,11405,2146959515,2147519890,2147301312,2147514221,2147081362,2146923456,2147725924,2147121572,1437,-1,8,8661
1365574560,5810,1028.0100097656250000,233.3226013183593800,539.3706054687500000,6.3026409149169920,36.6961097717285160,52,103,96,79,80,11404,2146963401,2147518848,2147298486,2147518070,2147082944,2146917120,2147723108,2147124461,70,-1,8,61494
1365578160,5808,1028.5000000000000000,232.4217987060547000,539.6771240234375000,6.2930450439453125,36.7499504089355500,52,101,97,79,81,11381,2146965065,2147520612,2147298724,2147513627,2147082560,2146918400,2147723392,2147120923,127,-1,8,43223
1365581760,5805,1027.7600097656250000,231.1531982421875000,540.3618164062500000,6.2716078758239750,36.8295707702636700,52,103,96,79,80,11318,2146959616,2147516763,2147301284,2147516480,2147084050,2146918354,2147718409,2147123163,3277,0,8,3945
1365585360,5805,1031.7900390625000000,233.8139953613281200,539.4011840820312000,6.3016819953918460,36.6707000732421900,52,103,98,78,81,11376,2146963776,2147518610,2147298157,2147518628,2147083949,2146915556,2147721819,2147121179,218,0,8,57775
1365588960,5807,1027.2500000000000000,231.6358947753906200,540.0167236328125000,6.2824130058288570,36.7970008850097660,52,101,97,79,80,11377,2146965851,2147519972,2147300324,2147518582,2147081974,2146921883,2147723053,2147121883,613,0,8,64069
1365592560,5806,1031.0600585937500000,235.1053924560547000,540.6571044921875000,6.2623600959777830,36.6260414123535160,53,101,96,77,80,11375,2146961865,2147516626,2147299026,2147517275,2147087323,2146923209,2147723629,2147122797,3209,0,8,35003
1365596160,5804,1031.6800537109375000,235.6974945068359400,540.8704223632812000,6.2556781768798830,36.5992317199707000,52,108,98,80,80,11374,2146961088,2147521737,2147302811,2147517558,2147083757,2146914084,2147727469,2147121325,2970,0,8,19927
1365599760,5806,1034.3900146484375000,235.1645050048828000,539.9594726562500000,6.2842040061950680,36.6105308532714840,52,102,98,80,79,11372,2146964333,2147520457,2147304009,2147518180,2147082642,2146917796,2147721115,2147121846,2751,-1,8,40818
1365603360,5806,1015.4600219726562000,228.5988006591797000,533.5012207031250000,6.4862561225891110,36.8428611755371100,52,103,98,79,79,11371,2146958930,2147519341,2147298276,2147515977,2147083574,2146918464,2147723620,2147119588,3367,0,8,17934
1365604556,5806,1006.1900024414062000,227.6876983642578000,533.4368286132812000,6.4882678985595700,36.8910408020019500,51,109,98,80,80,11405,2146960164,2147518683,2147299218,2147514898,2147086720,2146918482,2147724315,2147125302,339,0,8,33343
